TimeCDT,TemperatureF,Dew PointF,Humidity,Sea Level PressureIn,VisibilityMPH,Wind Direction,Wind SpeedMPH,Gust SpeedMPH,PrecipitationIn,Events,Conditions,WindDirDegrees,DateUTC
12:35 AM,50.0,46.4,87,30.26,10.0,SE,4.6,-,N/A,,Clear,130,2012-10-13 05:35:00
12:55 AM,50.0,48.2,94,30.25,10.0,SSE,3.5,-,N/A,,Clear,150,2012-10-13 05:55:00
1:15 AM,51.8,48.2,88,30.25,10.0,Calm,Calm,-,N/A,,Clear,0,2012-10-13 06:15:00
1:35 AM,49.3,47.1,92,30.25,10.0,SE,3.5,-,N/A,,Clear,130,2012-10-13 06:35:00
1:55 AM,49.1,46.8,92,30.24,10.0,ESE,3.5,-,N/A,,Clear,110,2012-10-13 06:55:00
2:15 AM,49.3,46.8,91,30.24,10.0,Calm,Calm,-,N/A,,Clear,0,2012-10-13 07:15:00
2:35 AM,49.3,47.3,93,30.23,10.0,ESE,3.5,-,N/A,,Scattered Clouds,120,2012-10-13 07:35:00
2:55 AM,50.0,48.2,94,30.22,10.0,ESE,5.8,-,N/A,,Mostly Cloudy,120,2012-10-13 07:55:00
3:15 AM,50.9,48.6,92,30.21,10.0,SE,4.6,-,N/A,,Scattered Clouds,130,2012-10-13 08:15:00
3:35 AM,50.5,48.4,92,30.21,10.0,ESE,5.8,-,N/A,,Clear,120,2012-10-13 08:35:00
3:55 AM,50.4,48.4,93,30.19,10.0,ESE,5.8,-,N/A,,Clear,120,2012-10-13 08:55:00
4:15 AM,50.7,48.9,94,30.19,10.0,ESE,4.6,-,N/A,,Clear,120,2012-10-13 09:15:00
4:35 AM,50.7,49.3,95,30.18,7.0,SE,6.9,-,N/A,,Clear,130,2012-10-13 09:35:00
4:55 AM,50.9,49.1,94,30.18,7.0,SSE,4.6,-,N/A,,Clear,150,2012-10-13 09:55:00
5:15 AM,50.4,49.1,95,30.18,7.0,SSE,3.5,-,N/A,,Clear,150,2012-10-13 10:15:00
5:35 AM,50.9,49.8,96,30.18,5.0,South,4.6,-,N/A,,Clear,170,2012-10-13 10:35:00
5:55 AM,51.6,50.4,95,30.18,7.0,SSE,5.8,-,N/A,,Clear,150,2012-10-13 10:55:00
6:15 AM,51.3,50.0,95,30.18,5.0,SSE,4.6,-,N/A,,Clear,160,2012-10-13 11:15:00
6:35 AM,51.8,50.9,97,30.19,5.0,South,3.5,-,N/A,,Scattered Clouds,180,2012-10-13 11:35:00
6:55 AM,52.9,51.8,96,30.18,5.0,SSE,5.8,-,N/A,,Mostly Cloudy,150,2012-10-13 11:55:00
7:15 AM,53.1,51.8,95,30.18,5.0,SSE,5.8,-,N/A,,Overcast,160,2012-10-13 12:15:00
7:35 AM,53.8,52.2,94,30.17,5.0,SSE,4.6,-,N/A,,Overcast,150,2012-10-13 12:35:00
7:55 AM,54.5,52.7,94,30.16,5.0,SSE,6.9,-,N/A,,Overcast,150,2012-10-13 12:55:00
8:15 AM,55.2,53.6,94,30.15,5.0,SSE,8.1,-,N/A,,Overcast,150,2012-10-13 13:15:00
8:35 AM,57.2,55.4,94,30.15,5.0,SSE,5.8,-,N/A,,Overcast,160,2012-10-13 13:35:00
8:55 AM,57.9,56.1,94,30.16,5.0,South,5.8,-,N/A,,Overcast,180,2012-10-13 13:55:00
9:15 AM,59.0,57.2,94,30.15,5.0,South,8.1,-,N/A,,Overcast,170,2012-10-13 14:15:00
9:35 AM,60.6,58.1,91,30.14,5.0,South,10.4,-,N/A,,Overcast,180,2012-10-13 14:35:00
9:55 AM,61.7,59.0,91,30.14,5.0,South,11.5,-,N/A,,Overcast,180,2012-10-13 14:55:00
10:15 AM,62.6,59.0,88,30.13,5.0,SSW,10.4,-,N/A,,Overcast,200,2012-10-13 15:15:00
10:35 AM,63.1,60.4,91,30.13,4.0,South,9.2,-,N/A,,Overcast,190,2012-10-13 15:35:00
10:55 AM,64.4,60.8,88,30.12,5.0,South,11.5,-,N/A,,Overcast,190,2012-10-13 15:55:00
11:15 AM,65.5,61.7,88,30.12,5.0,South,11.5,-,N/A,,Scattered Clouds,190,2012-10-13 16:15:00
11:35 AM,67.1,61.7,83,30.11,5.0,SSW,9.2,-,N/A,,Haze,200,2012-10-13 16:35:00
11:55 AM,68.9,62.6,80,30.11,7.0,South,10.4,-,N/A,,Clear,190,2012-10-13 16:55:00
12:35 PM,74.1,64.9,73,30.08,10.0,SSW,12.7,-,N/A,,Clear,200,2012-10-13 17:35:00
12:55 PM,73.4,65.1,75,30.07,7.0,South,16.1,23.0,N/A,,Scattered Clouds,190,2012-10-13 17:55:00
1:15 PM,73.6,65.3,75,30.06,10.0,SSW,13.8,21.9,N/A,,Scattered Clouds,210,2012-10-13 18:15:00
1:35 PM,72.9,64.8,76,30.06,10.0,SSW,13.8,17.3,N/A,,Scattered Clouds,210,2012-10-13 18:35:00
1:55 PM,73.9,65.3,74,30.04,10.0,South,12.7,-,N/A,,Clear,190,2012-10-13 18:55:00
2:15 PM,75.0,65.7,73,30.02,10.0,South,15.0,-,N/A,,Clear,190,2012-10-13 19:15:00
2:35 PM,76.8,65.8,69,30.01,10.0,SSW,12.7,18.4,N/A,,Scattered Clouds,210,2012-10-13 19:35:00
2:55 PM,77.2,64.8,65,30.01,10.0,SSW,19.6,28.8,N/A,,Clear,200,2012-10-13 19:55:00
3:35 PM,76.6,64.4,66,30.00,10.0,SSW,17.3,27.6,N/A,,Clear,210,2012-10-13 20:35:00
3:55 PM,77.5,64.4,64,30.00,10.0,SSW,17.3,27.6,N/A,,Clear,210,2012-10-13 20:55:00
4:15 PM,77.5,64.0,63,29.99,10.0,SSW,16.1,20.7,N/A,,Clear,210,2012-10-13 21:15:00
4:35 PM,77.5,63.9,63,29.99,10.0,SW,16.1,19.6,N/A,,Clear,220,2012-10-13 21:35:00
4:55 PM,76.5,63.5,64,29.99,10.0,SSW,9.2,-,N/A,,Scattered Clouds,200,2012-10-13 21:55:00
5:15 PM,75.7,63.5,66,29.99,10.0,South,10.4,-,N/A,,Scattered Clouds,190,2012-10-13 22:15:00
5:35 PM,75.7,63.9,66,29.99,10.0,SSW,10.4,-,N/A,,Scattered Clouds,200,2012-10-13 22:35:00
5:55 PM,74.7,63.7,69,29.97,10.0,South,9.2,-,N/A,,Clear,170,2012-10-13 22:55:00
6:15 PM,73.8,64.0,72,29.96,10.0,South,9.2,-,N/A,,Clear,170,2012-10-13 23:15:00
6:35 PM,73.0,63.5,72,29.97,10.0,South,6.9,-,N/A,,Clear,190,2012-10-13 23:35:00
6:55 PM,72.0,63.3,74,29.97,10.0,South,8.1,-,N/A,,Clear,180,2012-10-13 23:55:00
7:35 PM,71.6,63.0,74,29.97,10.0,South,8.1,-,N/A,,Clear,170,2012-10-14 00:35:00
7:55 PM,71.1,63.0,75,29.97,10.0,South,8.1,-,N/A,,Clear,180,2012-10-14 00:55:00
8:15 PM,69.8,62.6,78,29.97,10.0,South,8.1,-,N/A,,Clear,170,2012-10-14 01:15:00
8:35 PM,70.7,63.1,77,29.97,10.0,South,6.9,-,N/A,,Scattered Clouds,170,2012-10-14 01:35:00
8:55 PM,71.6,62.6,73,29.96,10.0,South,8.1,-,N/A,,Scattered Clouds,170,2012-10-14 01:55:00
9:15 PM,69.8,63.1,79,29.95,5.0,SSE,6.9,-,N/A,,Haze,160,2012-10-14 02:15:00
9:35 PM,69.6,63.1,80,29.95,7.0,SSE,8.1,-,N/A,,Clear,160,2012-10-14 02:35:00
9:55 PM,69.4,63.0,80,29.94,7.0,SSE,10.4,-,N/A,,Clear,160,2012-10-14 02:55:00
10:15 PM,70.0,62.8,78,29.94,10.0,South,10.4,-,N/A,,Clear,170,2012-10-14 03:15:00
10:35 PM,71.6,62.6,73,29.93,10.0,SSE,11.5,-,N/A,,Clear,160,2012-10-14 03:35:00
10:55 PM,70.7,62.6,75,29.91,10.0,South,11.5,-,N/A,,Scattered Clouds,170,2012-10-14 03:55:00
11:15 PM,70.7,62.2,75,29.91,10.0,South,12.7,-,N/A,,Clear,170,2012-10-14 04:15:00
11:35 PM,70.7,62.2,75,29.89,10.0,South,13.8,18.4,N/A,,Clear,170,2012-10-14 04:35:00